This is the latest recevied weather packets stored in our database for station/object K7CTM. If no packets are shown the sender has not sent any weather packets the latest 10 day(s).
| Time | Temp. | Humidity | Pressure | Rain* | Wind** | Luminosity | Snow |
|---|---|---|---|---|---|---|---|
| 1778220870 | 8.89° C | 84% | 1024.6 hPa | 0 mm | - | 0 W/m² | - |
| 1778220565 | 8.33° C | 87% | 1024.6 hPa | 0 mm | - | 0 W/m² | - |
| 1778220263 | 8.89° C | 86% | 1024.6 hPa | 0 mm | - | 0 W/m² | - |
| 1778219959 | 8.89° C | 85% | 1024.5 hPa | 0 mm | - | 0 W/m² | - |
| 1778219656 | 8.89° C | 84% | 1024.6 hPa | 0 mm | - | 0 W/m² | - |
| 1778219352 | 8.89° C | 84% | 1024.6 hPa | 0 mm | - | 0 W/m² | - |
| 1778219050 | 8.33° C | 88% | 1024.5 hPa | 0 mm | - | 0 W/m² | - |
| 1778218747 | 8.33° C | 88% | 1024.5 hPa | 0 mm | - | 0 W/m² | - |
| 1778218444 | 8.33° C | 88% | 1024.8 hPa | 0 mm | - | 0 W/m² | - |
| 1778218141 | 8.89° C | 87% | 1024.5 hPa | 0 mm | - | 0 W/m² | - |
| 1778217839 | 8.89° C | 85% | 1024.8 hPa | 0 mm | - | 0 W/m² | - |
| 1778217535 | 8.89° C | 85% | 1024.5 hPa | 0 mm | - | 0 W/m² | - |
| 1778217230 | 8.89° C | 85% | 1024.5 hPa | 0 mm | - | 0 W/m² | - |
| 1778216927 | 9.44° C | 84% | 1024.6 hPa | 0 mm | - | 0 W/m² | - |
| 1778216624 | 9.44° C | 84% | 1024.5 hPa | 0 mm | - | 0 W/m² | - |
| 1778216320 | 9.44° C | 83% | 1024.6 hPa | 0 mm | - | 0 W/m² | - |
| 1778216018 | 10° C | 82% | 1024.7 hPa | 0 mm | - | 0 W/m² | - |
| 1778215715 | 10° C | 79% | 1024.5 hPa | 0 mm | - | 0 W/m² | - |
| 1778215411 | 10.56° C | 78% | 1024.5 hPa | 0 mm | - | 0 W/m² | - |
| 1778215107 | 10° C | 78% | 1024.6 hPa | 0 mm | - | 0 W/m² | - |
| 1778214805 | 10° C | 79% | 1024.8 hPa | 0 mm | - | 0 W/m² | - |
| 1778214501 | 10° C | 79% | 1024.7 hPa | 0 mm | - | 0 W/m² | - |
| 1778214199 | 10° C | 79% | 1025 hPa | 0 mm | - | 0 W/m² | - |
| 1778213896 | 10° C | 79% | 1024.9 hPa | 0 mm | - | 0 W/m² | - |
| 1778213592 | 10.56° C | 78% | 1025 hPa | 0 mm | - | 0 W/m² | - |
* Rain latest hour (hover to see other rain measurements)
** Current wind speed in m/s (hover to see current wind gust speed)